This is the latest recevied weather packets stored in our database for station/object YO6KXQ-10. If no packets are shown the sender has not sent any weather packets the latest 10 day(s).
| Time | Temp. | Humidity | Pressure | Rain* | Wind** | Luminosity | Snow |
|---|---|---|---|---|---|---|---|
| 1777984252 | 18.89° C | 46% | 1018.4 hPa | - | - | - | - |
| 1777983232 | 18.89° C | 47% | 1018.7 hPa | - | - | - | - |
| 1777981192 | 18.89° C | 46% | 1019 hPa | - | - | - | - |
| 1777980171 | 18.89° C | 47% | 1019.1 hPa | - | - | - | - |
| 1777978131 | 18.33° C | 49% | 1019.5 hPa | - | - | - | - |
| 1777976091 | 18.33° C | 50% | 1019.8 hPa | - | - | - | - |
| 1777975071 | 18.33° C | 51% | 1020 hPa | - | - | - | - |
| 1777973030 | 18.33° C | 53% | 1020.5 hPa | - | - | - | - |
| 1777972010 | 18.33° C | 54% | 1020.6 hPa | - | - | - | - |
| 1777969970 | 18.33° C | 54% | 1020.7 hPa | - | - | - | - |
| 1777968950 | 18.33° C | 54% | 1020.8 hPa | - | - | - | - |
| 1777967929 | 18.33° C | 53% | 1020.9 hPa | - | - | - | - |
| 1777965889 | 17.78° C | 60% | 1021.1 hPa | - | - | - | - |
| 1777964684 | 18.33° C | 54% | 1021.1 hPa | - | - | - | - |
| 1777962644 | 17.78° C | 57% | 1021.2 hPa | - | - | - | - |
| 1777961624 | 17.78° C | 57% | 1021.2 hPa | - | - | - | - |
| 1777960604 | 17.78° C | 57% | 1021.3 hPa | - | - | - | - |
| 1777959583 | 17.78° C | 57% | 1021.3 hPa | - | - | - | - |
| 1777958563 | 17.78° C | 57% | 1021.3 hPa | - | - | - | - |
| 1777957543 | 17.78° C | 57% | 1021.2 hPa | - | - | - | - |
| 1777956523 | 17.78° C | 57% | 1021.2 hPa | - | - | - | - |
| 1777955503 | 17.78° C | 57% | 1021 hPa | - | - | - | - |
| 1777954483 | 17.78° C | 57% | 1021 hPa | - | - | - | - |
| 1777943260 | 18.33° C | 58% | 1020.3 hPa | - | - | - | - |
| 1777942240 | 18.33° C | 58% | 1020.4 hPa | - | - | - | - |
* Rain since midnight (hover to see other rain measurements)
** Current wind speed in m/s (hover to see current wind gust speed)